Flag for Germany Weather past 2 weeks in Waldkraiburg, Bavaria, Germany

Now
57 °F

Overcast.


Feels Like: 52 °F
Forecast: 36 / 41 °F
Wind: 23 mph from West

Location: Muenchen Flughafen

Current Time: Mar 31, 2015 at 10:51:05 AM

Latest Report: Mar 31, 2015 at 10:00 AM


Visibility: 44 mi

Pressure: 29.50 "Hg

Humidity: 61%

Dew point: 43 °F

Location of WaldkraiburgLocation

Historic Weather in Waldkraiburg — Graph

°F

Waldkraiburg temperature yesterday

Maximum temperature yesterday: 50 °F (at 12:00 AM)
Minimum temperature yesterday: 41 °F (at 12:00 PM)
Average temperature yesterday: 45 °F

Past Weeks' High & Low Weather Summary

 TemperatureHumidityPressure
High64 °F (Mar 17, 3:00 PM)99% (Mar 24, 1:00 AM)30.33 "Hg (Mar 24, 1:00 AM)
Low23 °F (Mar 21, 6:00 AM)31% (Mar 20, 5:00 PM)29.50 "Hg (Mar 31, 9:00 AM)
Average44 °F72%30.02 "Hg
* Reported Mar 16 8:00 AM — Mar 31 9:00 AM, Waldkraiburg, Weather by CustomWeather, © 2015

Note: Actual official high and low records may vary slightly from our data, if they occured in-between our weather recording intervals... More about our weather records

Advertising

Waldkraiburg weather history for previous 24 hours

 ConditionsComfort  
Time TempWeatherWind HumidityBarometerVisibility
9:00 AM
Tue, Mar 31
55 °FOvercast.22 mph67%29.50 "Hg43 mi
8:00 AM53 °FOvercast.20 mph73%29.54 "Hg43 mi
7:00 AM51 °FOvercast.14 mph78%29.59 "Hg37 mi
6:00 AM43 °FOvercast.7 mph90%29.66 "Hg25 mi
5:00 AM42 °FOvercast.7 mph89%29.74 "Hg22 mi
4:00 AM43 °FLight rain. Overcast.9 mph77%29.82 "Hg16 mi
3:00 AM41 °FOvercast.3 mph77%29.88 "Hg25 mi
2:00 AM41 °FOvercast.5 mph74%29.90 "Hg25 mi
1:00 AM40 °FOvercast.5 mph79%29.95 "Hg25 mi
12:00 AM41 °FOvercast.5 mph82%29.97 "Hg25 mi
11:00 PM
Mon, Mar 30
41 °FOvercast.3 mph79%29.97 "Hg22 mi
10:00 PM42 °FOvercast.5 mph74%29.96 "Hg19 mi
9:00 PM44 °FLight rain. Overcast.6 mph65%29.93 "Hg16 mi
8:00 PM44 °FOvercast.7 mph63%29.87 "Hg19 mi
7:00 PM45 °FPartly sunny.7 mph67%29.84 "Hg19 mi
6:00 PM46 °FPartly sunny.12 mph63%29.80 "Hg25 mi
5:00 PM44 °FPartly sunny.9 mph74%29.77 "Hg19 mi
4:00 PM48 °FOvercast.12 mph63%29.73 "Hg19 mi
3:00 PM46 °FPartly sunny.9 mph69%29.72 "Hg19 mi
2:00 PM43 °FOvercast.12 mph80%29.72 "Hg12 mi
1:00 PM44 °FOvercast.10 mph77%29.68 "Hg19 mi
12:00 PM41 °FLight rain. Overcast.9 mph81%29.68 "Hg16 mi
11:00 AM42 °FLight rain. Overcast.12 mph84%29.64 "Hg14 mi
10:00 AM45 °FLight rain. Overcast.9 mph85%29.59 "Hg11 mi
Weather by CustomWeather, © 2015

See weather overviewHow to use our weather pages